EW5239 Weather Reports


time (UTC)temp
C
wind
direction
speed
KPH
gust
KPH
rain 1hr
cm
rain 24hr
cm
rain mn
cm
humidity
%
barometer
mb
20260506192004 18 0 0.0 0.0 0.00 0.00 0.00 60 1004.2
20260506191504 18 0 0.0 0.0 0.00 0.00 0.00 59 1004.0
20260506191224 18 225 0.0 1.6 0.00 0.00 0.00 59 1005.8
20260506191005 18 0 0.0 0.0 0.00 0.00 0.00 57 1004.0
20260506190505 19 0 0.0 0.0 0.00 0.00 0.00 57 1004.0
20260506190231 18 0 0.0 0.0 0.00 0.00 0.00 57 1005.6
20260506190005 19 0 0.0 0.0 0.00 0.00 0.00 56 1003.8
20260506185505 19 0 0.0 0.0 0.00 0.00 0.00 56 1003.9
20260506185004 19 0 0.0 0.0 0.00 0.00 0.00 56 1003.7
20260506184725 19 0 0.0 0.0 0.00 0.00 0.00 56 1005.5
20260506184504 19 0 0.0 0.0 0.00 0.00 0.00 55 1003.8
20260506184224 19 0 0.0 0.0 0.00 0.00 0.00 55 1005.4
20260506184005 20 0 0.0 0.0 0.00 0.00 0.00 55 1003.6
20260506183724 19 225 0.0 1.6 0.00 0.00 0.00 55 1005.4
20260506183504 20 0 0.0 0.0 0.00 0.00 0.00 54 1003.7
20260506182725 20 265 1.6 3.2 0.00 0.00 0.00 55 1005.4
20260506182224 20 268 1.6 3.2 0.00 0.00 0.00 53 1005.3
20260506182005 20 0 0.0 0.0 0.00 0.00 0.00 53 1003.5
20260506181504 20 0 0.0 0.0 0.00 0.00 0.00 53 1003.5
20260506181224 20 270 0.0 1.6 0.00 0.00 0.00 52 1005.1
20260506181004 21 0 0.0 0.0 0.00 0.00 0.00 51 1003.4
20260506180724 21 270 0.0 1.6 0.00 0.00 0.00 49 1005.0
20260506180505 21 314 0.0 3.2 0.00 0.00 0.00 49 1003.3
20260506180230 21 225 0.0 1.6 0.00 0.00 0.00 49 1005.0
20260506180005 21 282 1.6 3.2 0.00 0.00 0.00 49 1003.3
20260506175724 21 257 0.0 1.6 0.00 0.00 0.00 48 1005.0
20260506175505 21 269 1.6 3.2 0.00 0.00 0.00 48 1003.4
20260506175225 21 309 0.0 1.6 0.00 0.00 0.00 48 1005.0
20260506175005 22 297 1.6 3.2 0.00 0.00 0.00 46 1003.4
20260506174725 21 300 1.6 4.8 0.00 0.00 0.00 48 1004.9
20260506174225 22 308 1.6 4.8 0.00 0.00 0.00 46 1005.0
20260506174005 22 295 3.2 6.4 0.00 0.00 0.00 46 1003.5
20260506173724 22 307 3.2 6.4 0.00 0.00 0.00 46 1004.9
20260506173505 23 286 3.2 6.4 0.00 0.00 0.00 46 1003.5
20260506173225 22 302 4.8 8.0 0.00 0.00 0.00 45 1005.0
20260506173004 23 293 4.8 8.0 0.00 0.00 0.00 46 1003.6
20260506172724 22 295 4.8 8.0 0.00 0.00 0.00 45 1004.9
20260506172504 23 291 6.4 8.0 0.00 0.00 0.00 45 1003.5
20260506172225 22 273 6.4 8.0 0.00 0.00 0.00 44 1005.0
20260506171724 22 254 6.4 8.0 0.00 0.00 0.00 43 1005.3
20260506171504 23 260 8.0 9.7 0.00 0.00 0.00 45 1003.5
20260506171224 22 231 6.4 11.3 0.00 0.00 0.00 44 1005.1
20260506171004 23 255 8.0 9.7 0.00 0.00 0.00 45 1003.4
20260506170725 22 245 8.0 11.3 0.00 0.00 0.00 43 1005.1
20260506165724 22 275 8.0 9.7 0.00 0.00 0.00 44 1005.0
20260506165005 22 284 9.7 12.9 0.00 0.00 0.00 45 1003.5
20260506164725 22 287 9.7 12.9 0.00 0.00 0.00 44 1005.2
20260506164224 22 296 9.7 12.9 0.00 0.00 0.00 44 1005.1
20260506164005 22 302 9.7 14.5 0.00 0.00 0.00 45 1003.5
20260506163724 22 262 11.3 12.9 0.00 0.00 0.00 44 1005.0
20260506163504 22 288 11.3 14.5 0.00 0.00 0.00 44 1003.6
20260506163225 22 259 12.9 14.5 0.00 0.00 0.00 43 1005.3
20260506163004 22 293 12.9 16.1 0.00 0.00 0.00 44 1003.6
20260506162724 22 281 12.9 17.7 0.00 0.00 0.00 43 1005.3
20260506162505 22 300 12.9 19.3 0.00 0.00 0.00 44 1003.5
20260506161725 22 260 9.7 12.9 0.00 0.00 0.00 42 1005.4
20260506161504 22 266 11.3 17.7 0.00 0.00 0.00 43 1003.6
20260506161224 22 251 11.3 16.1 0.00 0.00 0.00 42 1005.5
20260506161005 22 290 11.3 17.7 0.00 0.00 0.00 43 1003.6
20260506160724 22 273 14.5 17.7 0.00 0.00 0.00 42 1005.4
20260506160504 23 271 14.5 22.5 0.00 0.00 0.00 45 1003.6
20260506160231 22 294 16.1 20.9 0.00 0.00 0.00 43 1005.3
20260506160005 23 270 16.1 22.5 0.00 0.00 0.00 44 1003.6
20260506155504 23 281 14.5 22.5 0.00 0.00 0.00 45 1003.8
20260506155225 22 281 12.9 17.7 0.00 0.00 0.00 43 1005.4
20260506155005 23 264 16.1 27.4 0.00 0.00 0.00 45 1003.7
20260506154725 22 273 19.3 29.0 0.00 0.00 0.00 43 1005.5
20260506154004 23 242 20.9 27.4 0.00 0.00 0.00 44 1003.8
20260506153724 23 293 19.3 24.1 0.00 0.00 0.00 42 1005.4
20260506153505 23 253 16.1 22.5 0.00 0.00 0.00 44 1003.6
20260506153224 23 275 16.1 22.5 0.00 0.00 0.00 42 1005.5
20260506153004 23 247 16.1 27.4 0.00 0.00 0.00 44 1003.8
20260506152724 23 289 16.1 27.4 0.00 0.00 0.00 42 1005.5
20260506152504 23 267 17.7 27.4 0.00 0.00 0.00 43 1003.9
20260506152224 23 271 17.7 27.4 0.00 0.00 0.00 41 1005.6
20260506152005 23 284 17.7 20.9 0.00 0.00 0.00 44 1003.7
20260506151725 23 276 17.7 19.3 0.00 0.00 0.00 42 1005.7
20260506151504 23 258 16.1 20.9 0.00 0.00 0.00 43 1003.9
20260506151225 23 293 17.7 27.4 0.00 0.00 0.00 42 1005.4
20260506151004 23 273 19.3 27.4 0.00 0.00 0.00 43 1004.0
20260506150724 23 282 20.9 29.0 0.00 0.00 0.00 40 1005.7
20260506150505 23 270 20.9 27.4 0.00 0.00 0.00 43 1004.0
20260506150230 23 293 19.3 29.0 0.00 0.00 0.00 40 1005.3
20260506150005 23 248 19.3 24.1 0.00 0.00 0.00 43 1003.8
20260506145505 23 261 17.7 24.1 0.00 0.00 0.00 41 1003.7
20260506145225 23 252 17.7 25.7 0.00 0.00 0.00 40 1005.5
20260506145004 23 239 19.3 24.1 0.00 0.00 0.00 40 1003.7
20260506144725 24 245 19.3 29.0 0.00 0.00 0.00 39 1005.6
20260506144504 23 241 20.9 29.0 0.00 0.00 0.00 41 1003.8
20260506144224 23 287 25.7 33.8 0.00 0.00 0.00 41 1005.6
20260506144005 23 273 24.1 30.6 0.00 0.00 0.00 40 1003.8
20260506143724 23 299 24.1 33.8 0.00 0.00 0.00 39 1005.6
20260506143504 23 251 20.9 30.6 0.00 0.00 0.00 42 1003.6
20260506143225 24 273 17.7 27.4 0.00 0.00 0.00 41 1005.4
20260506142724 24 259 14.5 27.4 0.00 0.00 0.00 42 1005.2
20260506142505 23 269 16.1 22.5 0.00 0.00 0.00 44 1003.8
20260506142224 23 282 19.3 35.4 0.00 0.00 0.00 44 1005.4
20260506142004 23 280 20.9 33.8 0.00 0.00 0.00 45 1003.8
20260506141725 23 286 24.1 35.4 0.00 0.00 0.00 45 1005.4
20260506141504 23 292 27.4 33.8 0.00 0.00 0.00 45 1003.8
20260506141225 23 297 27.4 33.8 0.00 0.00 0.00 45 1005.6
20260506141005 23 297 29.0 33.8 0.00 0.00 0.00 45 1003.9
20260506140724 23 322 25.7 33.8 0.00 0.00 0.00 44 1005.7
20260506140504 23 282 24.1 30.6 0.00 0.00 0.00 45 1004.1
20260506140231 23 301 22.5 29.0 0.00 0.00 0.00 44 1005.5
20260506135004 23 256 19.3 27.4 0.00 0.00 0.00 46 1004.0
20260506134725 23 258 16.1 24.1 0.00 0.00 0.00 46 1005.5
20260506134504 23 243 14.5 20.9 0.00 0.00 0.00 46 1003.9
20260506133724 23 250 17.7 25.7 0.00 0.00 0.00 46 1005.5
20260506133504 23 236 17.7 27.4 0.00 0.00 0.00 46 1003.8
20260506133004 23 244 17.7 24.1 0.00 0.00 0.00 46 1003.9
20260506132724 23 257 19.3 25.7 0.00 0.00 0.00 45 1005.4
20260506132505 23 284 19.3 25.7 0.00 0.00 0.00 46 1003.9
20260506132224 23 273 20.9 25.7 0.00 0.00 0.00 45 1005.4
20260506132005 23 270 20.9 25.7 0.00 0.00 0.00 45 1003.6
20260506131725 23 256 19.3 25.7 0.00 0.00 0.00 44 1005.2
20260506131504 23 235 19.3 25.7 0.00 0.00 0.00 45 1003.8
20260506131005 23 226 16.1 20.9 0.00 0.00 0.00 45 1003.8
20260506130232 23 254 17.7 24.1 0.00 0.00 0.00 46 1005.4
20260506130005 23 240 16.1 24.1 0.00 0.00 0.00 48 1004.0
20260506125724 22 244 16.1 24.1 0.00 0.00 0.00 46 1005.8
20260506125224 22 243 16.1 24.1 0.00 0.00 0.00 46 1005.6
20260506125004 22 272 17.7 25.7 0.00 0.00 0.00 48 1004.0
20260506124724 22 234 16.1 24.1 0.00 0.00 0.00 47 1005.6
20260506124505 22 253 17.7 25.7 0.00 0.00 0.00 48 1004.0
20260506124225 23 233 16.1 25.7 0.00 0.00 0.00 47 1005.5
20260506124004 23 236 16.1 25.7 0.00 0.00 0.00 48 1004.1
20260506123724 23 266 17.7 25.7 0.00 0.00 0.00 46 1005.5
20260506123504 23 260 19.3 25.7 0.00 0.00 0.00 48 1004.0
20260506123225 23 287 19.3 24.1 0.00 0.00 0.00 47 1005.6
20260506122724 22 271 19.3 24.1 0.00 0.00 0.00 50 1005.6
20260506122504 22 258 17.7 22.5 0.00 0.00 0.00 51 1003.9
20260506122004 22 241 17.7 20.9 0.00 0.00 0.00 50 1003.9
20260506121505 22 244 19.3 24.1 0.00 0.00 0.00 51 1004.1
20260506121225 22 274 19.3 25.7 0.00 0.00 0.00 50 1005.6
20260506121004 22 244 20.9 24.1 0.00 0.00 0.00 51 1004.0
20260506120724 22 299 19.3 22.5 0.00 0.00 0.00 51 1005.6
20260506120504 22 249 19.3 22.5 0.00 0.00 0.00 51 1004.2
20260506120005 22 277 20.9 27.4 0.00 0.00 0.00 51 1004.0
20260506115504 22 286 19.3 27.4 0.00 0.00 0.00 52 1003.9
20260506115225 22 253 17.7 25.7 0.00 0.00 0.00 51 1005.4
20260506115004 22 258 16.1 20.9 0.00 0.00 0.00 52 1004.0
20260506114725 22 238 16.1 20.9 0.00 0.00 0.00 50 1005.6
20260506114504 22 260 17.7 25.7 0.00 0.00 0.00 52 1004.1
20260506114224 22 274 17.7 24.1 0.00 0.00 0.00 51 1005.6
20260506114005 22 256 16.1 25.7 0.00 0.00 0.00 52 1004.0
20260506113724 22 300 16.1 24.1 0.00 0.00 0.00 52 1005.6
20260506113005 22 265 16.1 20.9 0.00 0.00 0.00 52 1004.1
20260506112724 22 264 17.7 22.5 0.00 0.00 0.00 51 1005.6
20260506112224 22 268 19.3 22.5 0.00 0.00 0.00 51 1005.6
20260506112004 22 264 19.3 25.7 0.00 0.00 0.00 51 1004.1
20260506111725 22 258 19.3 24.1 0.00 0.00 0.00 51 1005.6
20260506111505 22 255 19.3 25.7 0.00 0.00 0.00 52 1004.0
20260506111224 22 252 17.7 24.1 0.00 0.00 0.00 51 1005.7
20260506111004 21 240 19.3 22.5 0.00 0.00 0.00 53 1004.2
20260506110725 21 255 19.3 25.7 0.00 0.00 0.00 52 1005.7
20260506110230 22 257 19.3 25.7 0.00 0.00 0.00 50 1005.7
20260506110005 22 263 17.7 25.7 0.00 0.00 0.00 51 1004.3
20260506105725 22 251 16.1 22.5 0.00 0.00 0.00 49 1005.4
20260506105504 22 257 16.1 27.4 0.00 0.00 0.00 51 1004.2
20260506105224 22 268 12.9 25.7 0.00 0.00 0.00 49 1005.7
20260506105005 22 287 14.5 27.4 0.00 0.00 0.00 51 1004.2
20260506104724 22 271 12.9 25.7 0.00 0.00 0.00 49 1005.6
20260506104504 22 277 14.5 22.5 0.00 0.00 0.00 51 1003.7
20260506104225 22 262 14.5 19.3 0.00 0.00 0.00 49 1005.3
20260506104004 22 277 14.5 19.3 0.00 0.00 0.00 51 1004.0
20260506103505 22 269 14.5 19.3 0.00 0.00 0.00 51 1004.0
20260506103224 21 254 14.5 19.3 0.00 0.00 0.00 52 1005.4
20260506103005 21 242 14.5 19.3 0.00 0.00 0.00 53 1003.9
20260506102725 21 248 14.5 22.5 0.00 0.00 0.00 51 1005.6
20260506102224 22 244 16.1 22.5 0.00 0.00 0.00 47 1005.3
20260506102004 22 249 17.7 24.1 0.00 0.00 0.00 51 1004.0
20260506101725 22 282 16.1 20.9 0.00 0.00 0.00 48 1005.3
20260506101505 22 236 17.7 22.5 0.00 0.00 0.00 51 1004.0
20260506101224 22 318 16.1 20.9 0.00 0.00 0.00 48 1005.4
20260506100724 21 313 16.1 19.3 0.00 0.00 0.00 52 1005.4
20260506100504 21 263 17.7 22.5 0.00 0.00 0.00 53 1003.9
20260506100230 21 299 14.5 19.3 0.00 0.00 0.00 52 1005.4
20260506100005 21 241 14.5 22.5 0.00 0.00 0.00 53 1003.9
20260506095724 21 257 12.9 16.1 0.00 0.00 0.00 51 1005.4
20260506095505 21 230 14.5 22.5 0.00 0.00 0.00 53 1004.1
20260506095224 21 234 12.9 22.5 0.00 0.00 0.00 53 1005.3
20260506094724 21 273 14.5 22.5 0.00 0.00 0.00 52 1005.5
20260506094505 21 233 14.5 22.5 0.00 0.00 0.00 53 1004.2
20260506094224 21 254 16.1 19.3 0.00 0.00 0.00 52 1005.3
20260506094004 21 237 16.1 22.5 0.00 0.00 0.00 54 1003.8
20260506093505 20 246 16.1 27.4 0.00 0.00 0.00 55 1003.9
20260506093224 20 287 17.7 25.7 0.00 0.00 0.00 55 1005.4
20260506092724 20 303 19.3 25.7 0.00 0.00 0.00 54 1005.2
20260506092224 21 304 17.7 25.7 0.00 0.00 0.00 54 1005.2
20260506092004 21 254 16.1 25.7 0.00 0.00 0.00 55 1003.9
20260506091724 21 295 14.5 25.7 0.00 0.00 0.00 54 1005.1
20260506091505 21 244 14.5 19.3 0.00 0.00 0.00 54 1003.7
20260506091224 21 256 14.5 17.7 0.00 0.00 0.00 54 1005.3
20260506091004 21 251 14.5 19.3 0.00 0.00 0.00 55 1003.8
20260506090724 20 247 14.5 17.7 0.00 0.00 0.00 55 1005.4
20260506090004 21 233 17.7 25.7 0.00 0.00 0.00 56 1003.7
20260506085724 20 232 17.7 24.1 0.00 0.00 0.00 56 1005.1
20260506085225 20 277 17.7 24.1 0.00 0.00 0.00 55 1005.2
20260506085005 20 248 17.7 25.7 0.00 0.00 0.00 58 1003.8
20260506084724 20 311 16.1 22.5 0.00 0.00 0.00 58 1005.3
20260506084504 20 253 14.5 19.3 0.00 0.00 0.00 58 1003.7
20260506084225 20 283 14.5 20.9 0.00 0.00 0.00 57 1005.2
20260506084004 20 237 16.1 20.9 0.00 0.00 0.00 59 1003.7
20260506083724 19 265 16.1 20.9 0.00 0.00 0.00 59 1005.6
20260506083505 19 249 17.7 20.9 0.00 0.00 0.00 59 1003.9
20260506083224 19 251 16.1 20.9 0.00 0.00 0.00 58 1005.4
20260506082724 19 250 14.5 19.3 0.00 0.00 0.00 58 1005.4
20260506082504 19 249 14.5 22.5 0.00 0.00 0.00 58 1003.7
20260506082004 19 208 17.7 25.7 0.00 0.00 0.00 59 1003.8
20260506081724 19 239 19.3 24.1 0.00 0.00 0.00 57 1005.6
20260506081505 19 229 22.5 25.7 0.00 0.00 0.00 59 1003.7
20260506081005 19 223 22.5 24.1 0.00 0.00 0.00 58 1003.6
20260506080725 19 211 17.7 24.1 0.00 0.00 0.00 59 1005.2
20260506080505 19 210 20.9 24.1 0.00 0.00 0.00 58 1003.6
20260506080230 19 212 19.3 24.1 0.00 0.00 0.00 58 1005.3
20260506073505 18 226 16.1 25.7 0.00 0.00 0.00 60 1003.6
20260506073225 18 238 17.7 25.7 0.00 0.00 0.00 61 1005.0
20260506073004 18 239 17.7 25.7 0.00 0.00 0.00 62 1003.6
20260506072224 18 253 17.7 22.5 0.00 0.00 0.00 60 1005.0
20260506072005 18 221 17.7 20.9 0.00 0.00 0.00 62 1003.6
20260506071724 18 248 17.7 24.1 0.00 0.00 0.00 60 1005.2
20260506071504 18 222 16.1 24.1 0.00 0.00 0.00 61 1003.4
20260506070504 18 226 16.1 24.1 0.00 0.00 0.00 62 1003.2
20260506062504 16 217 12.9 17.7 0.00 0.00 0.00 66 1003.0
20260506062224 16 208 12.9 22.5 0.00 0.00 0.00 65 1004.7
20260506061725 16 223 14.5 22.5 0.00 0.00 0.00 64 1004.9
20260506061504 16 205 16.1 22.5 0.00 0.00 0.00 65 1003.2
20260506061225 16 231 14.5 22.5 0.00 0.00 0.00 64 1004.6
20260506061004 16 203 17.7 22.5 0.00 0.00 0.00 64 1003.2
20260506060724 16 224 12.9 20.9 0.00 0.00 0.00 64 1004.7
20260506060504 16 201 16.1 17.7 0.00 0.00 0.00 65 1003.1
20260506060231 16 220 12.9 20.9 0.00 0.00 0.00 64 1004.7
20260506051225 16 210 11.3 14.5 0.00 0.00 0.00 65 1004.7
20260506051004 15 214 9.7 16.1 0.00 0.00 0.00 67 1002.8
20260506050724 15 201 8.0 14.5 0.00 0.00 0.00 65 1005.0
20260506050504 15 215 9.7 16.1 0.00 0.00 0.00 69 1003.0
20260506050231 15 209 8.0 17.7 0.00 0.00 0.00 68 1004.7
20260506045004 15 215 8.0 12.9 0.00 0.00 0.00 74 1003.2
20260506044725 14 225 8.0 12.9 0.00 0.00 0.00 75 1004.8
20260506044004 13 204 6.4 8.0 0.00 0.00 0.00 81 1003.3
20260506043724 12 188 6.4 8.0 0.00 0.00 0.00 94 1004.8
20260506043505 13 193 6.4 8.0 0.00 0.00 0.00 85 1003.1
20260506043225 12 179 4.8 8.0 0.00 0.00 0.00 96 1005.0
20260506043004 12 186 4.8 8.0 0.00 0.00 0.00 86 1003.3
20260506042724 11 186 4.8 6.4 0.00 0.00 0.00 97 1005.0
20260506042504 12 183 3.2 4.8 0.00 0.00 0.00 88 1003.2
20260506042005 12 171 3.2 4.8 0.00 0.00 0.00 90 1003.2
20260506041725 10 168 3.2 4.8 0.00 0.00 0.00 99 1005.0
20260506041504 11 153 3.2 4.8 0.00 0.00 0.00 92 1003.3
20260506041224 10 173 3.2 6.4 0.00 0.00 0.00 99 1004.8
20260506041005 11 132 3.2 3.2 0.00 0.00 0.00 92 1003.3
20260506040724 10 158 3.2 6.4 0.00 0.00 0.00 99 1004.8
20260506040504 10 150 3.2 3.2 0.00 0.00 0.00 94 1003.1
20260506040230 10 150 3.2 3.2 0.00 0.00 0.00 99 1005.1
20260506040004 10 165 3.2 3.2 0.00 0.00 0.00 94 1003.2
20260506035725 10 155 3.2 3.2 0.00 0.00 0.00 99 1005.1
20260506035505 10 159 1.6 3.2 0.00 0.00 0.00 94 1003.1
20260506035224 10 144 1.6 3.2 0.00 0.00 0.00 99 1004.9
20260506035004 10 142 1.6 3.2 0.00 0.00 0.00 94 1003.2
20260506034724 10 129 0.0 3.2 0.00 0.00 0.00 99 1005.2
20260506034504 10 124 1.6 3.2 0.00 0.00 0.00 94 1003.3
20260506034225 10 123 1.6 3.2 0.00 0.00 0.00 99 1004.9
20260506034004 10 119 3.2 3.2 0.00 0.00 0.00 94 1003.3
20260506033724 10 113 1.6 3.2 0.00 0.00 0.00 99 1005.1
20260506033504 10 115 3.2 3.2 0.00 0.00 0.00 94 1003.2
20260506033224 10 108 3.2 3.2 0.00 0.00 0.00 99 1005.0
20260506033005 10 117 3.2 4.8 0.00 0.00 0.00 94 1003.2
20260506032725 10 116 3.2 4.8 0.00 0.00 0.00 99 1005.0
20260506032505 10 111 3.2 4.8 0.00 0.00 0.00 94 1003.3
20260506032004 10 109 3.2 4.8 0.00 0.00 0.00 94 1003.3
20260506031724 10 105 3.2 3.2 0.00 0.00 0.00 98 1005.1
20260506031504 10 116 3.2 3.2 0.00 0.00 0.00 94 1003.3
20260506030504 10 117 3.2 3.2 0.00 0.00 0.00 94 1003.5
20260506030004 10 110 3.2 4.8 0.00 0.00 0.00 94 1003.4
20260506025505 10 114 3.2 4.8 0.00 0.00 0.00 94 1003.3
20260506025225 10 108 3.2 3.2 0.00 0.00 0.00 98 1005.1
20260506025004 10 113 3.2 3.2 0.00 0.00 0.00 94 1003.5
20260506024504 10 89 3.2 3.2 0.00 0.00 0.00 93 1003.4
20260506024005 10 101 3.2 3.2 0.00 0.00 0.00 93 1003.3
20260506023724 10 100 1.6 3.2 0.00 0.00 0.00 97 1005.1
20260506023504 10 110 3.2 3.2 0.00 0.00 0.00 93 1003.4
20260506023225 10 115 1.6 3.2 0.00 0.00 0.00 97 1005.2
20260506023004 10 113 3.2 3.2 0.00 0.00 0.00 93 1003.3
20260506022724 10 124 1.6 3.2 0.00 0.00 0.00 96 1005.2
20260506022504 10 112 1.6 3.2 0.00 0.00 0.00 93 1003.4
20260506022224 10 120 1.6 3.2 0.00 0.00 0.00 97 1005.3
20260506022004 10 104 1.6 3.2 0.00 0.00 0.00 93 1003.4
20260506021725 10 0 0.0 0.0 0.00 0.00 0.00 97 1005.3
20260506021224 10 0 0.0 0.0 0.00 0.00 0.00 96 1005.4
20260506021005 10 0 0.0 0.0 0.00 0.00 0.00 93 1003.5
20260506020725 10 135 0.0 1.6 0.00 0.00 0.00 96 1005.3
20260506020504 11 135 0.0 1.6 0.00 0.00 0.00 93 1003.5
20260506020230 10 135 0.0 3.2 0.00 0.00 0.00 96 1005.3
20260506020004 11 130 0.0 3.2 0.00 0.00 0.00 93 1003.5
20260506015724 11 125 1.6 3.2 0.00 0.00 0.00 96 1005.4
20260506015504 11 127 1.6 3.2 0.00 0.00 0.00 93 1003.5
20260506015225 11 129 3.2 3.2 0.00 0.00 0.00 96 1005.3
20260506015004 11 134 3.2 4.8 0.00 0.00 0.00 93 1003.6
20260506014725 11 133 3.2 4.8 0.00 0.00 0.00 96 1005.4
20260506014224 10 135 1.6 4.8 0.00 0.00 0.00 96 1005.2
20260506013724 11 135 1.6 3.2 0.00 0.00 0.00 96 1005.4
20260506013504 11 115 0.0 3.2 0.00 0.00 0.00 92 1003.7
20260506013225 11 135 1.6 3.2 0.00 0.00 0.00 95 1005.3
20260506013004 11 128 1.6 3.2 0.00 0.00 0.00 92 1003.7
20260506012725 11 135 3.2 3.2 0.00 0.00 0.00 95 1005.4
20260506012505 11 121 3.2 4.8 0.00 0.00 0.00 92 1003.7
20260506012225 11 129 3.2 3.2 0.00 0.00 0.00 94 1005.2
20260506012004 11 115 3.2 4.8 0.00 0.00 0.00 92 1003.5
20260506011505 11 121 1.6 4.8 0.00 0.00 0.00 92 1003.5
20260506011224 11 125 1.6 4.8 0.00 0.00 0.00 94 1005.4
20260506010725 11 118 0.0 3.2 0.00 0.00 0.00 94 1005.4
20260506010230 11 123 0.0 1.6 0.00 0.00 0.00 94 1005.4
20260506005724 11 127 0.0 3.2 0.00 0.00 0.00 94 1005.5
20260506005505 12 118 1.6 3.2 0.00 0.00 0.00 91 1003.8
20260506005224 11 119 1.6 3.2 0.00 0.00 0.00 94 1005.5
20260506005004 12 115 3.2 4.8 0.00 0.00 0.00 91 1003.9
20260506004505 12 118 4.8 6.4 0.00 0.00 0.00 90 1003.9
20260506004224 11 126 4.8 6.4 0.00 0.00 0.00 94 1005.4
20260506004004 12 118 4.8 6.4 0.00 0.00 0.00 90 1003.9
20260506003504 12 105 6.4 6.4 0.00 0.00 0.00 90 1003.9
20260506003225 11 116 4.8 4.8 0.00 0.00 0.00 94 1005.6
20260506003004 12 94 3.2 6.4 0.00 0.00 0.00 90 1003.8
20260506002724 11 115 3.2 4.8 0.00 0.00 0.00 94 1005.5
20260506002504 12 99 1.6 6.4 0.00 0.00 0.00 90 1003.7
20260506002224 11 126 3.2 4.8 0.00 0.00 0.00 93 1005.6
20260506002004 12 101 3.2 4.8 0.00 0.00 0.00 89 1003.8
20260506001725 12 125 3.2 4.8 0.00 0.00 0.00 92 1005.7
20260506001504 12 102 1.6 4.8 0.00 0.00 0.00 89 1004.0
20260506001224 11 117 1.6 4.8 0.00 0.00 0.00 93 1005.4
20260506000724 11 97 1.6 3.2 0.00 0.00 0.00 93 1005.5
20260506000231 11 98 1.6 3.2 0.00 0.00 0.00 92 1005.6
20260506000004 12 0 0.0 0.0 0.00 0.00 0.00 88 1003.9
20260505235724 11 101 0.0 3.2 0.00 0.00 0.00 92 1005.4
20260505235504 12 135 0.0 3.2 0.00 0.00 0.00 87 1004.1
20260505235004 12 128 0.0 3.2 0.00 0.00 0.00 87 1004.1
20260505234504 12 131 0.0 1.6 0.00 0.00 0.00 87 1004.1
20260505234225 12 97 0.0 3.2 0.00 0.00 0.00 91 1005.7
20260505234004 12 90 1.6 3.2 0.00 0.00 0.00 88 1004.1
20260505233504 12 103 3.2 3.2 0.00 0.00 0.00 88 1004.0
20260505233225 12 110 1.6 3.2 0.00 0.00 0.00 91 1005.7
20260505233004 12 116 1.6 3.2 0.00 0.00 0.00 87 1004.0
20260505232724 12 119 1.6 4.8 0.00 0.00 0.00 90 1005.7
20260505232504 12 109 3.2 6.4 0.00 0.00 0.00 87 1004.0
20260505232225 12 89 3.2 6.4 0.00 0.00 0.00 90 1005.7
20260505232004 12 89 4.8 6.4 0.00 0.00 0.00 86 1004.1
20260505231725 12 66 3.2 6.4 0.00 0.00 0.00 89 1005.8
20260505231504 12 64 4.8 6.4 0.00 0.00 0.00 85 1004.3
20260505231225 12 145 3.2 6.4 0.00 0.00 0.00 89 1005.9
20260505231005 12 94 3.2 6.4 0.00 0.00 0.00 86 1004.4
20260505230504 12 107 1.6 3.2 0.00 0.00 0.00 85 1004.1
20260505230005 12 246 1.6 4.8 0.00 0.00 0.00 85 1004.2
20260505225725 12 282 1.6 4.8 0.00 0.00 0.00 87 1006.1
20260505225504 12 282 3.2 6.4 0.00 0.00 0.00 85 1004.3
20260505225224 12 154 3.2 6.4 0.00 0.00 0.00 87 1005.9
20260505225005 13 242 4.8 6.4 0.00 0.00 0.00 85 1004.3
20260505224724 12 150 3.2 6.4 0.00 0.00 0.00 86 1005.7
20260505224504 13 165 4.8 6.4 0.00 0.00 0.00 84 1004.3
20260505224225 12 191 3.2 6.4 0.00 0.00 0.00 86 1006.0
20260505224004 13 174 3.2 6.4 0.00 0.00 0.00 85 1004.3
20260505223725 13 192 1.6 3.2 0.00 0.00 0.00 86 1005.8
20260505223225 13 198 1.6 3.2 0.00 0.00 0.00 86 1005.9
20260505223004 13 183 1.6 4.8 0.00 0.00 0.00 84 1004.3
20260505222504 13 151 3.2 4.8 0.00 0.00 0.00 82 1004.2
20260505222225 13 151 1.6 4.8 0.00 0.00 0.00 85 1006.1
20260505222004 14 130 1.6 4.8 0.00 0.00 0.00 82 1004.3
20260505221724 13 159 1.6 3.2 0.00 0.00 0.00 85 1006.0
20260505221504 14 257 3.2 3.2 0.00 0.00 0.00 81 1004.3
20260505221224 13 45 1.6 3.2 0.00 0.00 0.00 85 1005.9
20260505221005 15 302 3.2 3.2 0.00 0.00 0.00 83 1004.3
20260505220725 14 57 1.6 3.2 0.00 0.00 0.00 84 1005.9
20260505220504 14 330 3.2 4.8 0.00 0.00 0.00 81 1004.1
20260505220231 14 344 3.2 6.4 0.00 0.00 0.00 84 1005.9
20260505220005 14 238 4.8 6.4 0.00 0.00 0.00 81 1004.3
20260505215725 14 325 4.8 6.4 0.00 0.00 0.00 83 1006.0
20260505215005 15 259 6.4 8.0 0.00 0.00 0.00 79 1004.2
20260505214724 15 327 4.8 8.0 0.00 0.00 0.00 83 1006.0
20260505213725 15 287 9.7 14.5 0.00 0.00 0.00 83 1006.0
20260505213224 15 22 6.4 12.9 0.00 0.00 0.00 83 1006.0
20260505213004 15 282 4.8 12.9 0.00 0.00 0.00 78 1004.4
20260505212725 15 63 1.6 4.8 0.00 0.00 0.00 82 1006.0
20260505212504 15 126 1.6 3.2 0.00 0.00 0.00 77 1004.2
20260505212224 15 295 0.0 3.2 0.00 0.00 0.00 81 1005.9
20260505211725 15 196 1.6 3.2 0.00 0.00 0.00 80 1006.1
20260505211504 15 126 1.6 3.2 0.00 0.00 0.00 77 1004.3
20260505211225 15 87 1.6 3.2 0.00 0.00 0.00 79 1006.1
20260505211004 15 41 3.2 3.2 0.00 0.00 0.00 76 1004.4
20260505210724 15 352 1.6 3.2 0.00 0.00 0.00 78 1006.0
20260505210504 15 327 1.6 3.2 0.00 0.00 0.00 75 1004.3
20260505210231 15 350 1.6 3.2 0.00 0.00 0.00 76 1005.8
20260505210005 16 4 1.6 3.2 0.00 0.00 0.00 74 1004.4
20260505205724 15 31 1.6 3.2 0.00 0.00 0.00 76 1006.0
20260505205504 16 332 1.6 3.2 0.00 0.00 0.00 72 1004.3
20260505205225 16 345 1.6 3.2 0.00 0.00 0.00 74 1006.0
20260505205004 16 322 3.2 4.8 0.00 0.00 0.00 71 1004.4
20260505204725 16 29 1.6 3.2 0.00 0.00 0.00 72 1006.1
20260505204504 17 340 1.6 4.8 0.00 0.00 0.00 70 1004.3
20260505204224 16 46 0.0 3.2 0.00 0.00 0.00 72 1005.9
20260505204004 17 196 0.0 3.2 0.00 0.00 0.00 69 1004.3
20260505203724 17 0 0.0 0.0 0.00 0.00 0.00 71 1006.1
20260505203504 17 40 0.0 1.6 0.00 0.00 0.00 69 1004.4
20260505203225 17 46 0.0 1.6 0.00 0.00 0.00 70 1006.1
20260505202504 17 339 3.2 6.4 0.00 0.00 0.00 68 1004.4
20260505201725 17 51 4.8 9.7 0.00 0.00 0.00 69 1005.7
20260505201504 18 354 6.4 9.7 0.00 0.00 0.00 67 1004.3
20260505201225 18 38 6.4 9.7 0.00 0.00 0.00 68 1005.8
20260505201004 18 1 4.8 8.0 0.00 0.00 0.00 66 1004.2
20260505200504 17 347 4.8 8.0 0.00 0.00 0.00 64 1004.2
20260505200231 17 28 6.4 8.0 0.00 0.00 0.00 66 1005.9
20260505200004 17 349 6.4 8.0 0.00 0.00 0.00 64 1004.2
20260505195724 17 36 4.8 8.0 0.00 0.00 0.00 65 1005.8
20260505195504 17 349 6.4 8.0 0.00 0.00 0.00 63 1004.2
20260505195225 17 19 3.2 6.4 0.00 0.00 0.00 64 1005.8
20260505195005 17 313 4.8 6.4 0.00 0.00 0.00 62 1004.3
20260505194725 17 195 3.2 6.4 0.00 0.00 0.00 62 1005.9
20260505194504 17 215 3.2 6.4 0.00 0.00 0.00 61 1004.3
20260505194224 17 187 3.2 6.4 0.00 0.00 0.00 62 1005.8
20260505194004 17 228 4.8 6.4 0.00 0.00 0.00 59 1004.3
20260505193724 17 155 3.2 6.4 0.00 0.00 0.00 60 1005.7
20260505193225 17 346 4.8 12.9 0.00 0.00 0.00 57 1005.8
20260505193004 17 350 3.2 14.5 0.00 0.00 0.00 56 1004.2
20260505192504 17 321 6.4 14.5 0.00 0.00 0.00 53 1004.1
20260505192225 16 286 4.8 11.3 0.00 0.00 0.00 55 1005.7